Theta_e
305 305 306 306 306 306 306 307 307 307 308 307 308 307 307 303 309 308 309 312 312 310 310 310 311 311 311 311 313 314 320 321 322 323 323 320 321 320 320 325 331 333 331 331 328
306 306 306 305 305 304 306 307 307 307 308 307 307 308 308 306 310 310 308 311 312 308 310 311 310 311 310 312 312 315 317 319 319 318 320 318 318 319 322 326 331 334 328 326 329
306 306 305 304 304 304 305 307 307 306 307 306 305 308 310 308 309 310 308 310 309 308 310 311 311 311 312 313 311 312 313 313 315 316 318 319 320 317 321 324 326 333 332 327 328
305 305 304 300 300 303 305 305 305 305 306 307 306 310 308 308 309 308 309 309 309 308 309 310 308 311 311 314 312 315 312 311 313 314 319 322 320 320 319 322 319 320 327 326 328
303 302 302 299 298 300 304 304 300 301 306 306 307 311 308 306 309 309 309 309 309 309 310 310 309 311 311 311 312 314 313 313 313 312 315 320 321 321 321 319 320 326 325 326 329
304 301 300 299 299 299 300 301 303 301 302 304 308 310 309 309 310 309 309 308 309 309 310 310 309 309 310 311 312 311 312 313 312 313 314 319 319 323 321 315 326 331 327 326 329
303 302 300 300 300 299 298 298 300 301 302 306 310 310 308 308 310 309 309 309 309 308 309 309 309 310 311 313 312 312 314 313 313 313 314 317 320 321 318 314 325 331 332 326 326
304 303 302 298 299 298 297 298 299 303 305 307 310 310 307 309 308 309 309 310 309 309 309 309 310 311 313 312 313 313 313 314 312 313 314 317 313 317 318 311 315 330 332 329 323
303 304 302 299 298 298 298 299 302 305 306 307 310 308 307 307 308 309 309 309 309 309 310 310 312 312 313 314 315 313 315 315 314 313 317 317 315 316 317 310 315 322 332 331 329
302 302 301 299 298 298 298 300 304 304 307 308 308 305 305 306 307 309 309 309 309 308 311 312 311 313 313 315 316 315 316 315 314 314 317 319 316 319 314 309 310 312 320 330 330
303 301 300 299 298 299 299 301 298 299 302 305 305 305 305 307 308 309 309 308 308 308 307 309 311 308 314 315 315 316 317 315 316 313 317 319 317 317 313 309 308 309 311 316 322
302 301 300 299 299 300 302 301 301 300 300 302 303 304 305 307 309 307 309 309 308 308 305 306 308 311 313 315 316 315 314 316 315 313 317 319 318 314 312 313 310 307 310 310 315
302 301 299 299 298 300 301 302 303 303 303 303 304 306 306 307 308 308 308 308 309 308 307 310 308 311 312 314 315 314 315 312 318 319 318 318 318 319 314 312 312 310 308 310 310
301 300 299 299 300 300 297 298 302 303 296 302 305 305 305 306 308 307 308 309 307 309 308 305 308 309 312 315 314 316 315 314 318 323 324 314 321 313 315 313 312 312 309 308 310
301 300 299 299 298 298 298 298 301 299 299 300 304 304 303 306 306 307 307 308 310 310 306 307 308 309 311 314 312 316 313 316 317 319 319 317 319 316 312 314 312 312 311 308 308
301 300 299 300 300 300 298 301 301 298 298 305 303 303 305 304 305 305 305 305 307 307 305 305 303 307 308 309 311 311 313 314 314 316 319 318 320 318 315 313 309 311 310 309 306
301 300 299 299 298 300 299 297 295 298 297 300 303 303 305 305 306 305 307 306 308 304 307 306 305 304 306 308 308 308 309 306 311 316 320 312 315 314 313 312 310 309 310 310 308
301 300 300 299 299 298 298 292 291 289 294 301 303 304 306 304 305 304 306 305 305 308 308 309 305 306 306 309 310 309 310 311 311 316 317 308 314 314 310 310 309 309 309 309 309
301 300 299 299 299 298 292 290 292 290 300 303 303 304 299 304 307 304 304 304 306 308 309 309 308 305 306 307 307 309 310 309 310 304 309 309 308 308 310 307 305 306 306 306 307
300 299 298 300 298 298 292 295 289 295 301 302 304 302 302 301 307 304 300 302 305 306 307 310 309 306 306 305 306 308 307 308 306 305 310 312 308 310 307 305 304 304 303 302 302
299 295 298 300 299 292 291 288 294 298 300 303 301 303 304 305 301 305 303 302 303 304 306 308 307 306 305 308 309 307 308 307 307 308 310 312 311 304 305 304 304 302 300 299 298
295 292 299 298 291 286 288 287 296 299 300 301 301 302 302 303 305 303 305 304 306 307 309 307 306 303 308 305 303 307 309 306 305 308 306 308 308 305 304 302 302 300 298 297 297
292 295 299 296 291 287 285 290 294 299 299 301 301 301 302 303 302 303 303 303 303 306 307 308 299 297 301 302 303 306 308 307 305 305 307 307 308 303 301 300 300 299 297 297 296
293 298 297 298 291 290 288 289 293 296 299 300 301 301 302 303 301 303 304 303 303 304 306 305 303 301 301 302 303 306 307 307 306 302 307 305 306 305 302 300 300 298 297 296 296
292 291 295 299 297 291 293 293 295 295 295 298 300 301 302 302 302 303 302 302 302 305 301 302 299 300 301 299 299 303 305 306 309 307 303 306 305 304 300 298 299 297 296 296 296
293 293 293 294 296 296 295 294 297 297 296 296 297 300 300 301 302 303 300 301 302 301 301 297 296 296 296 297 295 296 298 302 304 307 307 308 308 301 300 296 297 296 295 296 295
296 295 297 296 296 296 296 295 296 297 296 298 298 299 301 299 297 297 297 297 299 301 300 297 294 291 294 291 289 291 293 298 302 303 304 308 305 299 296 297 297 296 295 296 296
Wind_Speed
8 10 11 12 12 13 13 15 16 15 15 16 17 16 14 13 11 5 5 6 8 13 13 11 12 10 3 3 3 1 2 15 10 2 3 10 2 3 4 3 3 5 2 1 21
9 10 12 13 13 13 14 14 15 16 16 15 15 13 12 12 6 3 3 7 10 13 12 13 8 11 3 3 2 3 4 7 4 3 2 5 6 9 2 4 4 3 2 14 26
10 11 12 13 14 14 14 15 16 17 17 17 14 12 12 7 1 0 3 8 11 9 8 7 5 3 3 3 2 3 7 11 16 7 4 7 7 5 8 6 6 8 7 14 20
10 11 12 13 14 15 15 15 16 17 16 16 12 11 9 2 3 1 6 10 4 4 6 5 4 2 1 2 3 4 3 4 6 7 5 3 7 10 6 14 5 6 7 12 17
10 11 12 13 14 15 17 17 15 15 16 13 11 9 3 2 1 3 8 4 2 3 3 2 4 2 2 3 4 6 6 6 8 10 8 6 10 4 14 12 15 5 11 17 16
10 11 11 13 15 16 17 18 19 18 13 8 7 7 2 1 1 6 8 2 3 1 2 1 2 2 2 5 6 4 8 12 13 14 9 10 9 4 11 13 14 5 11 13 18
10 11 12 13 15 18 19 19 19 16 5 2 2 4 2 3 3 9 6 5 6 3 3 4 2 1 2 5 3 6 11 11 10 10 10 6 12 11 0 12 15 6 6 8 11
10 11 13 14 16 18 19 19 18 6 2 1 1 3 4 1 7 7 5 5 3 2 6 2 2 3 2 4 5 5 7 6 0 7 5 9 14 10 9 10 15 8 5 6 9
10 11 13 14 17 18 19 19 6 3 2 2 2 2 5 6 4 7 7 4 8 0 3 2 3 2 1 4 4 3 7 8 11 9 5 12 7 6 13 11 9 13 6 1 4
11 11 12 13 15 18 19 10 1 1 2 2 0 3 3 4 8 9 6 6 1 2 3 2 2 0 1 1 5 5 6 6 11 4 12 13 2 11 14 12 10 13 12 6 9
11 10 10 13 14 15 16 2 5 2 4 0 1 1 3 10 3 2 4 5 1 2 3 2 1 2 6 8 11 12 11 16 7 6 4 8 6 7 15 9 17 17 14 14 10
9 8 9 11 13 10 7 6 4 1 5 2 3 4 5 2 3 3 10 2 4 3 5 4 2 4 8 8 11 6 11 10 11 6 8 9 11 13 8 8 16 20 15 16 12
8 7 8 9 8 5 10 5 3 2 0 5 3 2 3 1 2 4 4 1 3 4 4 0 4 6 4 8 14 5 6 7 4 9 5 11 4 5 4 10 16 22 14 13 13
7 6 7 8 1 3 3 2 0 1 4 3 2 2 2 1 2 3 2 2 2 2 3 4 4 4 4 7 5 5 11 7 9 2 3 4 4 1 4 12 18 16 18 13 18
7 5 5 5 1 1 1 1 2 1 4 3 4 3 5 3 4 2 2 2 1 4 1 4 5 4 2 6 4 6 6 3 5 4 3 6 4 4 6 10 12 11 13 7 7
7 4 3 2 0 2 3 2 1 5 4 1 3 4 3 4 5 5 4 5 1 2 3 5 4 2 3 6 5 10 3 2 2 3 3 6 1 3 5 5 4 7 14 17 15
8 5 2 1 0 0 1 3 5 4 3 4 2 3 2 3 3 5 4 5 4 5 6 6 5 6 2 5 5 8 5 3 5 5 3 10 7 4 9 6 5 7 6 7 11
9 6 3 2 2 0 2 5 3 2 4 0 0 1 2 4 3 5 2 4 5 4 3 4 5 6 7 1 3 5 3 3 1 2 2 7 6 5 4 6 3 2 2 4 8
12 7 3 4 4 2 4 4 7 6 2 4 2 4 4 2 1 3 4 1 1 4 1 3 4 5 3 3 2 7 4 2 5 2 3 3 1 1 2 3 4 6 5 4 3
12 6 3 6 6 4 4 4 4 3 2 1 4 3 3 3 1 2 1 2 2 1 1 1 5 2 5 2 2 2 2 3 3 3 3 2 3 2 4 5 6 9 7 7 7
9 3 4 8 7 4 3 6 4 3 2 3 4 3 3 3 3 1 3 3 3 3 2 2 1 5 2 5 2 5 3 4 3 2 2 3 0 2 2 3 6 6 5 5 6
7 1 6 11 3 0 3 6 2 3 1 1 2 2 5 5 3 1 3 3 3 1 1 1 1 3 2 3 2 1 1 1 3 2 2 2 3 2 4 5 6 5 4 4 4
4 2 3 3 3 2 3 2 2 4 4 5 5 4 3 4 2 4 4 2 1 2 1 2 2 3 6 5 3 4 3 1 1 2 1 4 3 2 4 6 5 6 5 5 5
4 4 2 2 2 6 5 4 3 2 3 3 4 3 3 4 4 5 5 3 1 2 3 2 1 4 4 2 2 3 4 3 2 2 3 3 4 3 4 6 5 5 5 5 5
2 5 4 6 7 4 5 6 6 4 1 2 1 5 5 3 3 4 3 2 0 1 2 2 2 0 0 2 3 3 3 3 1 1 2 2 7 5 6 7 5 4 4 5 6
5 4 0 3 5 13 8 7 10 4 8 5 4 8 6 6 7 7 6 3 3 2 2 1 2 1 3 2 3 4 7 4 3 2 4 2 1 4 3 5 5 6 5 6 5
11 5 4 8 5 9 7 7 10 10 6 4 9 5 6 6 4 3 3 4 3 5 3 2 4 3 4 4 3 5 7 6 3 1 5 5 4 5 4 6 5 5 5 4 3
Wind_Direction
6 1 359 355 354 353 349 346 344 343 344 342 341 341 342 341 351 33 51 14 356 351 0 9 19 24 68 26 333 317 255 248 250 210 271 284 317 316 324 209 220 208 180 184 154
0 357 353 350 347 346 344 342 341 339 339 337 336 343 343 341 359 50 25 1 355 353 8 22 3 5 33 14 308 185 251 268 4 343 353 304 316 305 253 270 240 231 63 135 148
349 347 345 344 342 341 340 339 337 336 336 337 341 344 342 339 46 326 353 340 337 345 9 21 1 15 37 345 291 260 246 258 279 286 317 325 316 317 292 264 234 219 180 162 161
338 335 334 336 338 336 336 336 334 332 332 331 336 342 344 51 117 284 316 333 338 338 5 15 2 24 2 276 307 299 315 327 320 333 331 287 319 324 269 269 323 297 176 168 178
332 332 330 333 335 334 332 330 329 330 329 329 330 338 1 54 200 303 328 328 14 355 34 21 52 37 2 314 306 253 292 299 290 275 261 256 262 234 297 301 306 277 175 181 189
326 334 334 333 334 333 331 328 326 328 327 326 333 338 48 82 326 341 339 322 308 315 149 164 185 169 230 245 218 232 275 272 279 285 291 257 248 233 264 331 297 218 210 204 189
320 330 334 332 332 331 330 328 326 323 325 347 333 342 49 170 331 334 325 313 304 251 178 218 198 137 156 265 294 281 287 293 249 222 233 235 267 233 288 332 292 267 229 208 201
313 321 328 329 329 330 329 329 326 328 356 51 360 331 253 289 321 341 330 314 312 278 227 259 213 219 209 299 283 267 268 284 234 204 242 165 259 219 34 352 296 310 225 200 182
306 315 323 329 329 331 329 329 326 327 306 189 145 75 293 322 354 338 330 301 315 353 228 250 233 221 156 288 275 228 272 258 294 199 200 184 249 171 41 359 9 359 335 332 98
305 305 317 327 331 334 332 329 284 51 70 172 38 75 345 306 315 316 326 311 325 345 105 148 225 281 197 267 302 280 259 257 252 288 204 200 159 63 32 352 54 33 8 43 45
300 304 317 328 335 340 343 51 23 339 39 7 261 233 251 318 311 322 332 329 43 40 8 305 359 309 321 317 296 268 279 269 226 245 249 219 169 63 19 290 41 48 8 22 35
291 298 315 330 337 351 6 67 105 287 320 317 262 273 264 340 330 315 356 35 32 8 340 14 321 313 307 309 333 281 282 308 258 210 204 152 132 87 34 335 50 55 24 20 359
281 293 315 330 340 20 58 94 101 135 279 305 230 267 282 50 319 289 30 352 48 8 350 235 280 323 343 343 349 317 308 334 299 89 73 121 52 122 192 28 49 50 44 30 6
265 284 312 331 344 32 64 28 93 106 66 311 358 5 358 32 311 280 30 91 6 327 321 248 299 337 348 351 343 330 344 343 12 99 70 353 134 249 74 53 36 31 36 22 16
247 268 313 347 10 73 81 346 154 161 14 307 323 316 333 44 306 29 356 60 31 310 5 291 317 337 349 284 319 262 333 344 45 51 108 14 89 333 16 33 31 20 57 41 51
228 241 288 314 326 118 351 111 111 43 252 6 315 347 46 10 347 314 20 43 203 333 327 271 275 247 262 286 248 285 288 251 7 71 73 341 282 33 31 29 11 42 23 32 20
215 223 235 243 357 58 36 43 34 134 337 308 342 32 107 343 3 27 38 20 42 32 5 327 314 310 322 338 321 14 21 349 4 47 19 339 53 31 18 39 29 49 36 26 45
197 207 210 207 203 166 86 50 100 231 227 181 20 57 57 351 9 355 69 27 7 28 0 351 333 353 335 69 293 320 40 104 109 45 15 2 25 14 317 328 328 131 90 47 19
184 186 196 195 186 149 71 76 207 203 182 161 64 79 332 348 25 44 26 14 299 20 354 357 272 308 256 311 52 319 38 284 112 350 70 7 144 45 234 3 46 59 42 27 30
162 164 181 173 163 121 77 238 204 204 156 149 167 137 191 275 74 61 348 259 316 254 100 322 298 275 296 343 5 44 298 12 10 67 69 51 60 73 22 34 47 53 40 27 35
144 97 162 158 138 50 162 228 235 213 177 147 195 149 203 170 144 197 197 246 210 302 234 331 135 293 360 15 350 346 8 33 113 64 135 117 330 220 146 113 97 69 62 43 43
134 100 159 162 78 125 168 191 255 165 148 150 118 154 192 172 153 214 223 183 16 212 304 48 1 260 251 278 237 242 354 33 103 280 47 89 221 128 164 127 113 97 91 73 56
120 134 153 134 155 246 302 294 241 158 187 170 191 204 204 172 127 202 207 197 33 45 64 23 333 353 347 353 8 44 336 328 74 53 222 124 230 113 122 92 78 96 66 53 52
118 139 176 163 161 148 148 227 194 256 189 179 167 150 169 169 196 187 197 214 173 174 75 79 133 178 192 222 313 323 338 359 44 86 181 199 150 146 131 110 101 81 69 57 46
136 206 181 171 205 173 193 153 143 171 243 214 239 220 175 147 168 217 168 151 352 151 68 109 163 193 164 13 320 286 282 329 65 51 118 206 157 196 167 153 156 140 100 68 41
149 142 21 154 138 168 196 206 171 178 151 225 203 190 192 159 184 195 160 196 195 133 101 31 162 90 336 349 360 292 283 267 244 163 115 67 133 173 118 103 127 134 108 66 36
200 142 134 156 152 163 204 190 196 144 221 185 191 140 188 206 134 102 103 73 138 152 135 83 129 77 271 340 343 330 230 194 192 214 142 171 201 173 139 149 158 138 102 81 39